FW2218 Weather Reports


Display with metric or nautical units.
time (UTC)temp
F
wind
direction
speed
MPH
gust
MPH
rain 1hr
in
rain 24hr
in
rain mn
in
humidity
%
barometer
mb
20260508134531 57 261 9.0 17.0 0.00 0.00 0.00 60 1011.7
20260508133143 56 267 9.0 17.0 0.00 0.00 0.00 60 1011.4
20260508131602 54 269 7.0 16.0 0.00 0.00 0.00 61 1011.4
20260508124533 53 254 4.0 11.0 0.00 0.00 0.00 59 1011.3
20260508123106 53 194 2.0 10.0 0.00 0.00 0.00 58 1011.3
20260508121606 53 151 0.0 3.0 0.00 0.00 0.00 57 1011.3
20260508120032 54 189 1.0 4.0 0.00 0.00 0.00 56 1011.3
20260508114531 54 239 1.0 5.0 0.00 0.00 0.00 56 1011.3
20260508113031 54 216 2.0 5.0 0.00 0.00 0.00 56 1011.1
20260508111605 53 124 2.0 5.0 0.00 0.00 0.00 56 1011.0
20260508110027 55 134 0.0 2.0 0.00 0.00 0.00 54 1011.0
20260508104530 56 150 1.0 4.0 0.00 0.00 0.00 51 1011.0
20260508103030 57 163 2.0 4.0 0.00 0.00 0.00 50 1010.9
20260508100111 58 192 3.0 7.0 0.00 0.00 0.00 47 1010.9
20260508093032 57 127 3.0 5.0 0.00 0.00 0.00 50 1010.8
20260508091530 58 153 2.0 5.0 0.00 0.00 0.00 48 1010.8
20260508084533 58 241 6.0 11.0 0.00 0.00 0.00 48 1010.6
20260508083030 58 226 3.0 8.0 0.00 0.00 0.00 48 1010.6
20260508081604 58 238 4.0 12.0 0.00 0.00 0.00 48 1010.5
20260508080028 59 261 1.0 7.0 0.00 0.00 0.00 47 1010.6
20260508074532 59 329 1.0 6.0 0.00 0.00 0.00 47 1010.5
20260508073032 59 312 0.0 2.0 0.00 0.00 0.00 48 1010.5
20260508071531 60 281 3.0 10.0 0.00 0.00 0.00 45 1010.4
20260508064532 61 252 8.0 15.0 0.00 0.00 0.00 43 1010.3
20260508063030 61 250 7.0 14.0 0.00 0.00 0.00 42 1010.2
20260508061531 62 249 8.0 16.0 0.00 0.00 0.00 41 1010.2
20260508054532 62 257 9.0 18.0 0.00 0.00 0.00 40 1010.1
20260508053030 63 258 9.0 16.0 0.00 0.00 0.00 38 1010.0
20260508051606 63 255 10.0 19.0 0.00 0.00 0.00 38 1009.9
20260508050029 64 255 10.0 18.0 0.00 0.00 0.00 37 1009.8
20260508044531 64 264 10.0 19.0 0.00 0.00 0.00 36 1009.8
20260508043028 64 261 8.0 15.0 0.00 0.00 0.00 34 1009.8
20260508041607 65 263 7.0 17.0 0.00 0.00 0.00 31 1009.7
20260508040031 65 274 7.0 14.0 0.00 0.00 0.00 30 1009.6
20260508033144 66 264 9.0 19.0 0.00 0.00 0.00 26 1009.1
20260508031533 67 265 8.0 18.0 0.00 0.00 0.00 25 1008.9
20260508030031 68 267 8.0 18.0 0.00 0.00 0.00 23 1008.8
20260508024604 69 271 9.0 18.0 0.00 0.00 0.00 22 1008.7
20260508023029 70 276 10.0 20.0 0.00 0.00 0.00 22 1008.7
20260508021529 71 280 9.0 20.0 0.00 0.00 0.00 22 1008.7
20260508020039 72 280 8.0 17.0 0.00 0.00 0.00 23 1008.7
20260508014529 70 278 9.0 19.0 0.00 0.00 0.00 23 1008.8
20260508013146 70 272 12.0 21.0 0.00 0.00 0.00 23 1008.8
20260508010038 72 273 12.0 21.0 0.00 0.00 0.00 22 1008.8
20260508004527 72 277 12.0 23.0 0.00 0.00 0.00 21 1008.8
20260508003145 73 278 13.0 24.0 0.00 0.00 0.00 21 1008.7
20260508001529 74 276 14.0 23.0 0.00 0.00 0.00 22 1008.6
20260508000029 73 277 12.0 25.0 0.00 0.00 0.00 24 1008.7
20260507234529 73 277 12.0 22.0 0.00 0.00 0.00 25 1008.8
20260507233032 74 279 11.0 21.0 0.00 0.00 0.00 27 1008.8
20260507231532 74 275 10.0 20.0 0.00 0.00 0.00 27 1008.9
20260507230036 75 280 10.0 20.0 0.00 0.00 0.00 26 1009.0
20260507224529 75 281 10.0 21.0 0.00 0.00 0.00 26 1009.2
20260507221532 75 278 11.0 23.0 0.00 0.00 0.00 26 1009.4
20260507213029 74 282 10.0 22.0 0.00 0.00 0.00 30 1009.9
20260507210029 73 298 9.0 17.0 0.00 0.00 0.00 31 1010.3
20260507204533 73 290 9.0 19.0 0.00 0.00 0.00 32 1010.4
20260507203031 73 285 8.0 18.0 0.00 0.00 0.00 33 1010.4
20260507201532 72 288 8.0 18.0 0.00 0.00 0.00 34 1010.6
20260507200032 70 294 7.0 20.0 0.00 0.00 0.00 35 1010.8
20260507194531 71 286 8.0 15.0 0.00 0.00 0.00 36 1010.9
20260507193032 70 281 8.0 19.0 0.00 0.00 0.00 38 1011.0
20260507190034 67 289 10.0 21.0 0.00 0.00 0.00 42 1011.5
20260507184607 67 297 10.0 19.0 0.00 0.00 0.00 43 1011.7
20260507183040 66 303 8.0 17.0 0.00 0.00 0.00 44 1011.9
20260507181533 66 304 9.0 19.0 0.00 0.00 0.00 46 1012.1
20260507180107 65 295 7.0 16.0 0.00 0.00 0.00 48 1012.1
20260507174533 64 291 8.0 21.0 0.00 0.00 0.00 49 1012.2
20260507173029 64 296 7.0 16.0 0.00 0.00 0.00 50 1012.5
20260507171535 64 303 5.0 15.0 0.00 0.00 0.00 53 1012.7
20260507170036 63 315 6.0 13.0 0.00 0.00 0.00 55 1012.7
20260507164532 62 298 8.0 17.0 0.00 0.00 0.00 55 1012.8
20260507163032 62 292 7.0 13.0 0.00 0.00 0.00 57 1012.8
20260507161608 61 277 8.0 18.0 0.00 0.00 0.00 58 1012.9
20260507160034 60 274 8.0 18.0 0.00 0.00 0.00 60 1013.1
20260507154606 60 268 8.0 15.0 0.00 0.00 0.00 60 1013.2
20260507153033 60 259 7.0 13.0 0.00 0.00 0.00 62 1013.4
20260507151531 59 269 6.0 12.0 0.00 0.00 0.00 64 1013.3
20260507150034 58 275 6.0 13.0 0.00 0.00 0.00 66 1013.4
20260507144534 57 276 7.0 16.0 0.00 0.00 0.00 68 1013.3
20260507141606 56 271 10.0 18.0 0.00 0.00 0.00 70 1013.1
20260507140026 55 271 10.0 17.0 0.00 0.00 0.00 72 1012.9